Time,TemperatureF,DewpointF,PressureIn,WindDirection,WindDirectionDegrees,WindSpeedMPH,WindSpeedGustMPH,Humidity,HourlyPrecipIn,Conditions,Clouds,dailyrainin,SolarRadiationWatts/m^2,SoftwareType,DateUTC
2013-09-21 00:00:00,63.5,59.2,29.83,South,180,0.0,5.0,86,0.00,,,0.00,0,Wunderground v.1.15,2013-09-21 07:00:00,
2013-09-21 00:06:00,63.3,59.4,29.83,South,179,0.0,5.0,87,0.00,,,0.00,0,Wunderground v.1.15,2013-09-21 07:06:00,
2013-09-21 00:11:00,63.2,59.3,29.83,South,179,0.0,5.0,87,0.00,,,0.00,0,Wunderground v.1.15,2013-09-21 07:11:00,
2013-09-21 00:17:00,63.1,59.2,29.83,South,179,0.0,5.0,87,0.00,,,0.00,0,Wunderground v.1.15,2013-09-21 07:17:00,
2013-09-21 00:22:00,63.0,59.4,29.83,South,179,0.0,5.0,88,0.00,,,0.00,0,Wunderground v.1.15,2013-09-21 07:22:00,
2013-09-21 00:28:00,62.9,59.3,29.83,South,179,0.0,5.0,88,0.00,,,0.00,0,Wunderground v.1.15,2013-09-21 07:28:00,
2013-09-21 00:34:00,62.8,59.2,29.82,South,179,0.0,5.0,88,0.00,,,0.00,0,Wunderground v.1.15,2013-09-21 07:34:00,
2013-09-21 00:40:00,62.7,59.1,29.83,South,179,0.0,5.0,88,0.00,,,0.00,0,Wunderground v.1.15,2013-09-21 07:40:00,
2013-09-21 00:45:00,62.7,59.1,29.82,South,179,0.0,5.0,88,0.00,,,0.00,0,Wunderground v.1.15,2013-09-21 07:45:00,
2013-09-21 00:50:00,62.6,59.3,29.82,South,179,0.0,5.0,89,0.00,,,0.00,0,Wunderground v.1.15,2013-09-21 07:50:00,
2013-09-21 00:56:00,62.7,59.4,29.82,South,179,0.0,5.0,89,0.00,,,0.01,0,Wunderground v.1.15,2013-09-21 07:56:00,
2013-09-21 01:01:00,62.6,59.3,29.82,South,179,0.0,5.0,89,0.10,,,0.02,0,Wunderground v.1.15,2013-09-21 08:01:00,
2013-09-21 01:07:00,62.6,59.3,29.82,South,179,0.0,5.0,89,0.07,,,0.02,0,Wunderground v.1.15,2013-09-21 08:07:00,
2013-09-21 01:13:00,62.5,59.2,29.82,South,179,0.0,5.0,89,0.38,,,0.03,0,Wunderground v.1.15,2013-09-21 08:13:00,
2013-09-21 01:19:00,62.4,59.4,29.82,SSE,164,0.0,5.0,90,0.37,,,0.08,0,Wunderground v.1.15,2013-09-21 08:19:00,
2013-09-21 01:24:00,62.3,59.3,29.82,SSE,164,0.0,5.0,90,0.32,,,0.10,0,Wunderground v.1.15,2013-09-21 08:24:00,
2013-09-21 01:29:00,62.3,59.3,29.82,SSE,163,0.0,6.0,90,0.10,,,0.10,0,Wunderground v.1.15,2013-09-21 08:29:00,
2013-09-21 01:35:00,62.2,59.5,29.81,SSE,162,1.0,5.0,91,0.06,,,0.11,0,Wunderground v.1.15,2013-09-21 08:35:00,
2013-09-21 01:40:00,62.2,59.5,29.82,SSE,161,0.0,5.0,91,0.06,,,0.11,0,Wunderground v.1.15,2013-09-21 08:40:00,
2013-09-21 01:45:00,62.1,59.4,29.82,SSE,167,0.0,5.0,91,0.09,,,0.12,0,Wunderground v.1.15,2013-09-21 08:45:00,
2013-09-21 01:50:00,62.1,59.4,29.82,SSE,167,1.0,1.0,91,0.26,,,0.14,0,Wunderground v.1.15,2013-09-21 08:50:00,
2013-09-21 01:55:00,62.0,59.3,29.82,SSE,167,0.0,5.0,91,0.45,,,0.16,0,Wunderground v.1.15,2013-09-21 08:55:00,
2013-09-21 02:00:00,61.9,59.2,29.82,SSE,167,0.0,5.0,91,0.37,,,0.18,0,Wunderground v.1.15,2013-09-21 09:00:00,
2013-09-21 02:06:00,61.9,59.2,29.82,SSE,167,0.0,5.0,91,0.21,,,0.21,0,Wunderground v.1.15,2013-09-21 09:06:00,
2013-09-21 02:11:00,61.8,59.5,29.82,SSE,167,0.0,5.0,92,0.17,,,0.22,0,Wunderground v.1.15,2013-09-21 09:11:00,
2013-09-21 02:16:00,61.8,59.5,29.82,SSE,167,0.0,5.0,92,0.19,,,0.24,0,Wunderground v.1.15,2013-09-21 09:16:00,
2013-09-21 02:22:00,61.8,59.5,29.82,SSE,167,0.0,5.0,92,0.20,,,0.26,0,Wunderground v.1.15,2013-09-21 09:22:00,
2013-09-21 02:27:00,61.8,59.5,29.82,SSE,167,0.0,5.0,92,0.13,,,0.28,0,Wunderground v.1.15,2013-09-21 09:27:00,
2013-09-21 02:32:00,61.8,59.5,29.82,South,171,0.0,5.0,92,0.14,,,0.29,0,Wunderground v.1.15,2013-09-21 09:32:00,
2013-09-21 02:38:00,61.7,59.4,29.82,South,172,0.0,5.0,92,0.32,,,0.32,0,Wunderground v.1.15,2013-09-21 09:38:00,
2013-09-21 02:44:00,61.3,59.0,29.82,NW,309,1.0,5.0,92,0.14,,,0.33,0,Wunderground v.1.15,2013-09-21 09:44:00,
2013-09-21 02:49:00,60.9,58.6,29.82,NW,309,1.0,5.0,92,0.12,,,0.34,0,Wunderground v.1.15,2013-09-21 09:49:00,
2013-09-21 02:54:00,60.7,58.4,29.82,NW,309,0.0,5.0,92,0.07,,,0.35,0,Wunderground v.1.15,2013-09-21 09:54:00,
2013-09-21 02:59:00,60.5,58.2,29.82,NW,309,0.0,5.0,92,0.11,,,0.36,0,Wunderground v.1.15,2013-09-21 09:59:00,
2013-09-21 03:04:00,60.4,58.1,29.82,NW,319,0.0,5.0,92,0.09,,,0.36,0,Wunderground v.1.15,2013-09-21 10:04:00,
2013-09-21 03:09:00,60.3,58.0,29.82,ENE,57,1.0,5.0,92,0.05,,,0.36,0,Wunderground v.1.15,2013-09-21 10:09:00,
2013-09-21 03:14:00,60.3,58.0,29.82,ENE,57,1.0,5.0,92,0.04,,,0.36,0,Wunderground v.1.15,2013-09-21 10:14:00,
2013-09-21 03:20:00,60.3,58.0,29.82,ENE,57,0.0,5.0,92,0.04,,,0.37,0,Wunderground v.1.15,2013-09-21 10:20:00,
2013-09-21 03:25:00,60.3,58.0,29.81,ENE,57,0.0,5.0,92,0.04,,,0.37,0,Wunderground v.1.15,2013-09-21 10:25:00,
2013-09-21 03:31:00,60.2,58.2,29.81,ENE,57,0.0,5.0,93,0.04,,,0.37,0,Wunderground v.1.15,2013-09-21 10:31:00,
2013-09-21 03:37:00,60.2,58.2,29.81,ENE,57,0.0,5.0,93,0.00,,,0.37,0,Wunderground v.1.15,2013-09-21 10:37:00,
2013-09-21 03:42:00,60.3,58.3,29.81,ENE,57,0.0,5.0,93,0.00,,,0.37,0,Wunderground v.1.15,2013-09-21 10:42:00,
2013-09-21 03:47:00,60.3,58.3,29.81,ENE,57,0.0,5.0,93,0.00,,,0.37,0,Wunderground v.1.15,2013-09-21 10:47:00,
2013-09-21 03:53:00,60.3,58.3,29.81,ENE,57,0.0,5.0,93,0.00,,,0.37,0,Wunderground v.1.15,2013-09-21 10:53:00,
2013-09-21 03:59:00,60.4,58.4,29.81,ENE,57,0.0,5.0,93,0.00,,,0.37,0,Wunderground v.1.15,2013-09-21 10:59:00,
2013-09-21 04:04:00,60.4,58.4,29.81,ENE,57,0.0,5.0,93,0.00,,,0.37,0,Wunderground v.1.15,2013-09-21 11:04:00,
2013-09-21 04:10:00,60.4,58.4,29.81,ENE,57,0.0,5.0,93,0.00,,,0.37,0,Wunderground v.1.15,2013-09-21 11:10:00,
2013-09-21 04:16:00,60.4,58.4,29.81,ENE,57,0.0,5.0,93,0.00,,,0.37,0,Wunderground v.1.15,2013-09-21 11:16:00,
2013-09-21 04:22:00,60.4,58.4,29.81,ENE,57,0.0,5.0,93,0.00,,,0.37,0,Wunderground v.1.15,2013-09-21 11:22:00,
2013-09-21 04:27:00,60.4,58.4,29.80,ENE,57,0.0,5.0,93,0.00,,,0.37,0,Wunderground v.1.15,2013-09-21 11:27:00,
2013-09-21 04:32:00,60.4,58.4,29.81,ENE,57,0.0,5.0,93,0.00,,,0.37,0,Wunderground v.1.15,2013-09-21 11:32:00,
2013-09-21 04:38:00,60.3,58.3,29.80,ENE,57,0.0,5.0,93,0.00,,,0.37,0,Wunderground v.1.15,2013-09-21 11:38:00,
2013-09-21 04:44:00,60.3,58.3,29.81,ENE,57,0.0,5.0,93,0.00,,,0.37,0,Wunderground v.1.15,2013-09-21 11:44:00,
2013-09-21 04:50:00,60.4,58.4,29.81,ENE,57,0.0,5.0,93,0.00,,,0.37,0,Wunderground v.1.15,2013-09-21 11:50:00,
2013-09-21 04:55:00,60.3,58.3,29.80,ENE,57,0.0,5.0,93,0.00,,,0.37,0,Wunderground v.1.15,2013-09-21 11:55:00,
2013-09-21 05:00:00,60.3,58.3,29.80,ENE,57,0.0,5.0,93,0.00,,,0.37,0,Wunderground v.1.15,2013-09-21 12:00:00,
2013-09-21 05:06:00,60.2,58.2,29.80,ENE,57,0.0,5.0,93,0.00,,,0.37,0,Wunderground v.1.15,2013-09-21 12:06:00,
2013-09-21 05:11:00,60.2,58.5,29.80,ENE,57,0.0,5.0,94,0.00,,,0.37,0,Wunderground v.1.15,2013-09-21 12:11:00,
2013-09-21 05:17:00,60.1,58.4,29.80,ENE,57,0.0,5.0,94,0.00,,,0.37,0,Wunderground v.1.15,2013-09-21 12:17:00,
2013-09-21 05:22:00,60.1,58.4,29.80,ENE,57,0.0,5.0,94,0.00,,,0.37,0,Wunderground v.1.15,2013-09-21 12:22:00,
2013-09-21 05:28:00,60.0,58.3,29.80,ENE,57,0.0,5.0,94,0.00,,,0.37,0,Wunderground v.1.15,2013-09-21 12:28:00,
2013-09-21 05:33:00,60.0,58.3,29.80,ENE,57,0.0,5.0,94,0.00,,,0.37,0,Wunderground v.1.15,2013-09-21 12:33:00,
2013-09-21 05:39:00,59.9,58.2,29.80,ENE,57,0.0,5.0,94,0.00,,,0.37,0,Wunderground v.1.15,2013-09-21 12:39:00,
2013-09-21 05:44:00,59.8,57.8,29.80,ENE,57,0.0,5.0,93,0.00,,,0.37,0,Wunderground v.1.15,2013-09-21 12:44:00,
2013-09-21 05:50:00,59.6,57.6,29.80,ENE,57,0.0,5.0,93,0.00,,,0.37,0,Wunderground v.1.15,2013-09-21 12:50:00,
2013-09-21 05:56:00,59.5,57.5,29.80,ENE,57,0.0,5.0,93,0.00,,,0.37,0,Wunderground v.1.15,2013-09-21 12:56:00,
2013-09-21 06:02:00,59.4,57.7,29.81,ENE,57,0.0,5.0,94,0.00,,,0.37,0,Wunderground v.1.15,2013-09-21 13:02:00,
2013-09-21 06:07:00,59.3,57.6,29.80,ENE,57,0.0,5.0,94,0.00,,,0.37,0,Wunderground v.1.15,2013-09-21 13:07:00,
2013-09-21 06:12:00,59.2,57.2,29.80,ENE,57,0.0,5.0,93,0.00,,,0.37,0,Wunderground v.1.15,2013-09-21 13:12:00,
2013-09-21 06:18:00,59.0,57.0,29.81,ENE,57,0.0,5.0,93,0.00,,,0.37,0,Wunderground v.1.15,2013-09-21 13:18:00,
2013-09-21 06:24:00,58.9,57.2,29.81,ENE,57,0.0,5.0,94,0.00,,,0.37,0,Wunderground v.1.15,2013-09-21 13:24:00,
2013-09-21 06:29:00,58.9,57.2,29.81,ENE,57,0.0,5.0,94,0.00,,,0.37,0,Wunderground v.1.15,2013-09-21 13:29:00,
2013-09-21 06:35:00,58.8,57.1,29.80,ENE,57,0.0,5.0,94,0.00,,,0.37,0,Wunderground v.1.15,2013-09-21 13:35:00,
2013-09-21 06:40:00,58.8,57.1,29.80,ENE,57,0.0,5.0,94,0.00,,,0.37,0,Wunderground v.1.15,2013-09-21 13:40:00,
2013-09-21 06:45:00,58.8,57.1,29.80,ENE,57,0.0,5.0,94,0.00,,,0.37,0,Wunderground v.1.15,2013-09-21 13:45:00,
2013-09-21 06:50:00,58.7,57.0,29.80,ENE,57,0.0,5.0,94,0.00,,,0.37,0,Wunderground v.1.15,2013-09-21 13:50:00,
2013-09-21 06:56:00,58.6,56.9,29.80,ENE,57,0.0,5.0,94,0.00,,,0.38,0,Wunderground v.1.15,2013-09-21 13:56:00,
2013-09-21 07:01:00,58.5,56.8,29.80,ENE,57,0.0,5.0,94,0.00,,,0.38,0,Wunderground v.1.15,2013-09-21 14:01:00,
2013-09-21 07:07:00,58.5,56.8,29.80,ENE,57,0.0,5.0,94,0.00,,,0.38,11,Wunderground v.1.15,2013-09-21 14:07:00,
2013-09-21 07:13:00,58.4,56.7,29.80,ENE,57,0.0,5.0,94,0.00,,,0.38,19,Wunderground v.1.15,2013-09-21 14:13:00,
2013-09-21 07:18:00,58.3,56.6,29.80,ENE,57,0.0,5.0,94,0.00,,,0.38,26,Wunderground v.1.15,2013-09-21 14:18:00,
2013-09-21 07:23:00,58.2,56.5,29.80,ENE,57,0.0,5.0,94,0.00,,,0.38,39,Wunderground v.1.15,2013-09-21 14:23:00,
2013-09-21 07:28:00,58.2,56.5,29.80,ENE,57,0.0,5.0,94,0.00,,,0.38,46,Wunderground v.1.15,2013-09-21 14:28:00,
2013-09-21 07:34:00,58.2,56.5,29.80,ENE,57,0.0,5.0,94,0.00,,,0.00,53,Wunderground v.1.15,2013-09-21 14:34:00,
2013-09-21 07:39:00,58.2,56.5,29.80,ENE,57,0.0,5.0,94,0.00,,,0.00,37,Wunderground v.1.15,2013-09-21 14:39:00,
2013-09-21 07:45:00,58.3,56.6,29.80,ENE,57,0.0,5.0,94,0.00,,,0.00,28,Wunderground v.1.15,2013-09-21 14:45:00,
2013-09-21 07:50:00,58.3,56.6,29.80,ENE,57,0.0,5.0,94,0.00,,,0.00,23,Wunderground v.1.15,2013-09-21 14:50:00,
2013-09-21 07:55:00,58.4,56.7,29.80,ENE,57,0.0,5.0,94,0.00,,,0.00,14,Wunderground v.1.15,2013-09-21 14:55:00,
2013-09-21 08:00:00,58.5,56.8,29.80,ENE,57,0.0,5.0,94,0.00,,,0.00,16,Wunderground v.1.15,2013-09-21 15:00:00,
2013-09-21 08:05:00,58.6,56.9,29.80,ENE,57,0.0,5.0,94,0.00,,,0.00,18,Wunderground v.1.15,2013-09-21 15:05:00,
2013-09-21 08:11:00,58.8,57.1,29.81,ENE,57,0.0,5.0,94,0.35,,,0.03,25,Wunderground v.1.15,2013-09-21 15:11:00,
2013-09-21 08:16:00,58.9,57.5,29.80,ENE,57,0.0,5.0,95,0.17,,,0.04,26,Wunderground v.1.15,2013-09-21 15:16:00,
2013-09-21 08:21:00,58.9,57.5,29.80,ENE,57,0.0,5.0,95,0.09,,,0.04,28,Wunderground v.1.15,2013-09-21 15:21:00,
2013-09-21 08:27:00,59.1,57.7,29.80,ENE,63,0.0,5.0,95,0.05,,,0.04,51,Wunderground v.1.15,2013-09-21 15:27:00,
2013-09-21 08:32:00,59.1,57.7,29.80,East,88,1.0,5.0,95,0.00,,,0.04,83,Wunderground v.1.15,2013-09-21 15:32:00,
2013-09-21 08:38:00,59.2,57.8,29.80,East,88,1.0,5.0,95,0.00,,,0.04,26,Wunderground v.1.15,2013-09-21 15:38:00,
2013-09-21 08:43:00,59.3,57.9,29.80,East,90,0.0,5.0,95,0.00,,,0.05,19,Wunderground v.1.15,2013-09-21 15:43:00,
2013-09-21 08:49:00,59.2,57.5,29.80,East,93,0.0,5.0,94,0.00,,,0.05,28,Wunderground v.1.15,2013-09-21 15:49:00,
2013-09-21 08:54:00,59.2,57.5,29.81,East,93,0.0,5.0,94,0.00,,,0.05,30,Wunderground v.1.15,2013-09-21 15:54:00,
2013-09-21 09:00:00,59.1,57.7,29.81,SSE,167,1.0,5.0,95,0.00,,,0.06,26,Wunderground v.1.15,2013-09-21 16:00:00,
2013-09-21 09:06:00,59.0,57.6,29.80,SE,142,2.0,5.0,95,0.12,,,0.07,40,Wunderground v.1.15,2013-09-21 16:06:00,
2013-09-21 09:11:00,59.1,57.7,29.81,SSE,148,1.0,5.0,95,0.09,,,0.07,47,Wunderground v.1.15,2013-09-21 16:11:00,
2013-09-21 09:16:00,59.2,57.8,29.81,SSE,149,1.0,5.0,95,0.05,,,0.07,53,Wunderground v.1.15,2013-09-21 16:16:00,
2013-09-21 09:22:00,59.3,57.9,29.81,SE,135,1.0,5.0,95,0.00,,,0.07,62,Wunderground v.1.15,2013-09-21 16:22:00,
2013-09-21 09:28:00,59.4,58.0,29.81,SE,125,1.0,5.0,95,0.00,,,0.08,49,Wunderground v.1.15,2013-09-21 16:28:00,
2013-09-21 09:34:00,59.5,58.1,29.81,SE,144,1.0,6.0,95,0.00,,,0.08,127,Wunderground v.1.15,2013-09-21 16:34:00,
2013-09-21 09:39:00,59.6,58.2,29.81,SE,144,1.0,6.0,95,0.00,,,0.08,95,Wunderground v.1.15,2013-09-21 16:39:00,
2013-09-21 09:45:00,59.6,58.2,29.81,SSE,168,2.0,6.0,95,0.88,,,0.10,54,Wunderground v.1.15,2013-09-21 16:45:00,
2013-09-21 09:50:00,59.5,58.1,29.81,SSE,156,2.0,2.0,95,0.47,,,0.14,65,Wunderground v.1.15,2013-09-21 16:50:00,
2013-09-21 09:56:00,59.6,58.2,29.82,SE,146,1.0,5.0,95,0.14,,,0.15,76,Wunderground v.1.15,2013-09-21 16:56:00,
2013-09-21 10:02:00,59.6,58.2,29.81,SE,146,1.0,5.0,95,0.06,,,0.15,49,Wunderground v.1.15,2013-09-21 17:02:00,
2013-09-21 10:08:00,59.6,58.2,29.81,SE,146,1.0,5.0,95,0.04,,,0.15,14,Wunderground v.1.15,2013-09-21 17:08:00,
2013-09-21 10:13:00,59.6,58.2,29.82,SE,146,0.0,5.0,95,0.00,,,0.16,23,Wunderground v.1.15,2013-09-21 17:13:00,
2013-09-21 10:19:00,59.6,58.2,29.82,SE,146,0.0,5.0,95,0.11,,,0.17,70,Wunderground v.1.15,2013-09-21 17:19:00,
2013-09-21 10:25:00,59.6,58.2,29.82,SE,146,0.0,5.0,95,0.14,,,0.18,111,Wunderground v.1.15,2013-09-21 17:25:00,
2013-09-21 10:30:00,59.6,58.2,29.82,SE,146,0.0,5.0,95,0.08,,,0.19,113,Wunderground v.1.15,2013-09-21 17:30:00,
2013-09-21 10:35:00,59.8,58.4,29.82,SSE,153,0.0,5.0,95,0.08,,,0.19,69,Wunderground v.1.15,2013-09-21 17:35:00,
2013-09-21 10:41:00,59.8,58.4,29.82,SW,219,1.0,5.0,95,0.05,,,0.19,37,Wunderground v.1.15,2013-09-21 17:41:00,
2013-09-21 10:47:00,59.8,58.4,29.82,SW,217,1.0,5.0,95,0.00,,,0.19,56,Wunderground v.1.15,2013-09-21 17:47:00,
2013-09-21 10:52:00,59.8,58.4,29.82,SW,223,1.0,5.0,95,0.00,,,0.20,114,Wunderground v.1.15,2013-09-21 17:52:00,
2013-09-21 10:57:00,59.8,58.4,29.82,West,260,1.0,5.0,95,0.00,,,0.20,118,Wunderground v.1.15,2013-09-21 17:57:00,
2013-09-21 11:02:00,59.9,58.5,29.82,WSW,239,0.0,5.0,95,0.00,,,0.20,125,Wunderground v.1.15,2013-09-21 18:02:00,
2013-09-21 11:08:00,60.0,58.6,29.82,WSW,239,0.0,5.0,95,0.00,,,0.20,149,Wunderground v.1.15,2013-09-21 18:08:00,
2013-09-21 11:13:00,60.2,58.8,29.82,WSW,239,0.0,5.0,95,0.00,,,0.20,109,Wunderground v.1.15,2013-09-21 18:13:00,
2013-09-21 11:18:00,60.3,58.9,29.82,WSW,250,1.0,5.0,95,0.00,,,0.20,125,Wunderground v.1.15,2013-09-21 18:18:00,
2013-09-21 11:24:00,60.0,58.6,29.82,SW,236,2.0,5.0,95,0.00,,,0.20,128,Wunderground v.1.15,2013-09-21 18:24:00,
2013-09-21 11:29:00,60.0,58.6,29.82,WSW,240,2.0,9.0,95,0.00,,,0.20,146,Wunderground v.1.15,2013-09-21 18:29:00,
2013-09-21 11:34:00,60.1,58.7,29.82,WSW,242,1.0,5.0,95,0.00,,,0.20,207,Wunderground v.1.15,2013-09-21 18:34:00,
2013-09-21 11:40:00,60.2,58.8,29.82,WSW,242,0.0,5.0,95,0.00,,,0.20,186,Wunderground v.1.15,2013-09-21 18:40:00,
2013-09-21 11:46:00,60.3,58.9,29.83,WSW,242,0.0,5.0,95,0.00,,,0.20,225,Wunderground v.1.15,2013-09-21 18:46:00,
2013-09-21 11:51:00,60.5,59.1,29.82,WSW,242,0.0,5.0,95,0.00,,,0.20,262,Wunderground v.1.15,2013-09-21 18:51:00,
2013-09-21 11:57:00,60.9,59.5,29.82,NW,322,1.0,5.0,95,0.00,,,0.20,294,Wunderground v.1.15,2013-09-21 18:57:00,
2013-09-21 12:02:00,60.9,59.5,29.82,NW,322,1.0,5.0,95,0.00,,,0.20,367,Wunderground v.1.15,2013-09-21 19:02:00,
2013-09-21 12:08:00,61.0,59.6,29.82,NW,316,0.0,5.0,95,0.00,,,0.20,216,Wunderground v.1.15,2013-09-21 19:08:00,
2013-09-21 12:14:00,60.9,59.5,29.82,NNW,340,1.0,5.0,95,0.00,,,0.20,353,Wunderground v.1.15,2013-09-21 19:14:00,
2013-09-21 12:19:00,61.2,59.8,29.82,NNW,340,0.0,5.0,95,0.00,,,0.20,218,Wunderground v.1.15,2013-09-21 19:19:00,
2013-09-21 12:25:00,61.6,60.2,29.82,NNW,340,0.0,5.0,95,0.00,,,0.20,276,Wunderground v.1.15,2013-09-21 19:25:00,
2013-09-21 12:30:00,61.7,60.3,29.82,West,265,0.0,5.0,95,0.00,,,0.20,287,Wunderground v.1.15,2013-09-21 19:30:00,
2013-09-21 12:36:00,61.5,59.8,29.82,West,267,1.0,8.0,94,0.00,,,0.20,262,Wunderground v.1.15,2013-09-21 19:36:00,
2013-09-21 12:42:00,61.6,59.6,29.82,West,259,1.0,5.0,93,0.00,,,0.20,155,Wunderground v.1.15,2013-09-21 19:42:00,
2013-09-21 12:47:00,61.7,59.7,29.82,WSW,247,1.0,5.0,93,0.00,,,0.20,111,Wunderground v.1.15,2013-09-21 19:47:00,
2013-09-21 12:52:00,61.8,59.5,29.82,WSW,250,2.0,5.0,92,0.00,,,0.20,239,Wunderground v.1.15,2013-09-21 19:52:00,
2013-09-21 12:57:00,62.1,59.4,29.82,West,261,1.0,5.0,91,0.00,,,0.20,195,Wunderground v.1.15,2013-09-21 19:57:00,
2013-09-21 13:02:00,62.1,58.5,29.82,WNW,286,2.0,10.0,88,0.00,,,0.20,308,Wunderground v.1.15,2013-09-21 20:02:00,
2013-09-21 13:07:00,62.2,58.0,29.82,NW,323,3.0,10.0,86,0.00,,,0.20,221,Wunderground v.1.15,2013-09-21 20:07:00,
2013-09-21 13:13:00,62.6,58.0,29.82,WSW,240,2.0,5.0,85,0.00,,,0.20,325,Wunderground v.1.15,2013-09-21 20:13:00,
2013-09-21 13:19:00,62.9,57.3,29.82,WNW,294,3.0,7.0,82,0.00,,,0.20,350,Wunderground v.1.15,2013-09-21 20:19:00,
2013-09-21 13:24:00,63.4,57.5,29.82,WNW,290,3.0,9.0,81,0.00,,,0.20,705,Wunderground v.1.15,2013-09-21 20:24:00,
2013-09-21 13:30:00,63.8,56.8,29.83,West,281,3.0,5.0,78,0.00,,,0.20,264,Wunderground v.1.15,2013-09-21 20:30:00,
2013-09-21 13:35:00,64.1,57.1,29.82,NW,304,4.0,5.0,78,0.00,,,0.20,267,Wunderground v.1.15,2013-09-21 20:35:00,
2013-09-21 13:41:00,64.6,57.2,29.82,NW,304,3.0,7.0,77,0.00,,,0.20,309,Wunderground v.1.15,2013-09-21 20:41:00,
2013-09-21 13:46:00,64.7,57.3,29.82,WSW,256,3.0,7.0,77,0.00,,,0.20,345,Wunderground v.1.15,2013-09-21 20:46:00,
2013-09-21 13:52:00,65.1,57.7,29.82,South,182,2.0,6.0,77,0.00,,,0.20,1055,Wunderground v.1.15,2013-09-21 20:52:00,
2013-09-21 13:57:00,65.6,57.1,29.81,SW,234,4.0,7.0,74,0.00,,,0.20,1048,Wunderground v.1.15,2013-09-21 20:57:00,
2013-09-21 14:02:00,66.2,57.3,29.81,SW,234,5.0,13.0,73,0.00,,,0.20,967,Wunderground v.1.15,2013-09-21 21:02:00,
2013-09-21 14:07:00,66.1,57.2,29.81,West,281,5.0,13.0,73,0.00,,,0.20,176,Wunderground v.1.15,2013-09-21 21:07:00,
2013-09-21 14:13:00,65.9,57.4,29.80,NW,317,4.0,9.0,74,0.00,,,0.20,237,Wunderground v.1.15,2013-09-21 21:13:00,
2013-09-21 14:18:00,65.6,58.2,29.80,NW,313,3.0,9.0,77,0.00,,,0.21,206,Wunderground v.1.15,2013-09-21 21:18:00,
2013-09-21 14:24:00,65.0,58.0,29.80,WNW,302,2.0,5.0,78,0.00,,,0.21,206,Wunderground v.1.15,2013-09-21 21:24:00,
2013-09-21 14:29:00,64.8,57.8,29.80,WNW,283,1.0,5.0,78,0.00,,,0.21,193,Wunderground v.1.15,2013-09-21 21:29:00,
2013-09-21 14:34:00,64.4,57.7,29.80,NW,304,1.0,5.0,79,0.00,,,0.21,174,Wunderground v.1.15,2013-09-21 21:34:00,
2013-09-21 14:40:00,64.1,56.7,29.79,WSW,254,2.0,2.0,77,0.00,,,0.21,139,Wunderground v.1.15,2013-09-21 21:40:00,
2013-09-21 14:45:00,64.1,57.1,29.79,WSW,255,2.0,6.0,78,0.00,,,0.21,172,Wunderground v.1.15,2013-09-21 21:45:00,
2013-09-21 14:51:00,64.0,56.6,29.79,West,280,2.0,5.0,77,0.00,,,0.21,188,Wunderground v.1.15,2013-09-21 21:51:00,
2013-09-21 14:56:00,64.0,56.6,29.79,NW,317,2.0,5.0,77,0.00,,,0.21,241,Wunderground v.1.15,2013-09-21 21:56:00,
2013-09-21 15:01:00,64.1,55.6,29.80,NW,320,3.0,6.0,74,0.00,,,0.21,190,Wunderground v.1.15,2013-09-21 22:01:00,
2013-09-21 15:07:00,64.3,55.1,29.80,NNW,329,5.0,11.0,72,0.00,,,0.21,772,Wunderground v.1.15,2013-09-21 22:07:00,
2013-09-21 15:13:00,64.6,55.0,29.80,NW,311,6.0,9.0,71,0.00,,,0.21,125,Wunderground v.1.15,2013-09-21 22:13:00,
2013-09-21 15:19:00,64.8,55.2,29.80,West,261,4.0,9.0,71,0.00,,,0.21,675,Wunderground v.1.15,2013-09-21 22:19:00,
2013-09-21 15:25:00,65.6,55.2,29.80,West,263,4.0,7.0,69,0.00,,,0.21,91,Wunderground v.1.15,2013-09-21 22:25:00,
2013-09-21 15:31:00,66.1,55.2,29.80,West,267,4.0,5.0,68,0.00,,,0.21,647,Wunderground v.1.15,2013-09-21 22:31:00,
2013-09-21 15:37:00,66.6,54.9,29.80,WNW,288,3.0,8.0,66,0.00,,,0.21,135,Wunderground v.1.15,2013-09-21 22:37:00,
2013-09-21 15:42:00,66.7,54.6,29.80,WSW,244,3.0,5.0,65,0.00,,,0.21,640,Wunderground v.1.15,2013-09-21 22:42:00,
2013-09-21 15:48:00,66.8,54.2,29.80,West,261,4.0,9.0,64,0.00,,,0.21,612,Wunderground v.1.15,2013-09-21 22:48:00,
2013-09-21 15:53:00,67.0,54.0,29.80,WSW,248,6.0,10.0,63,0.00,,,0.21,608,Wunderground v.1.15,2013-09-21 22:53:00,
2013-09-21 15:59:00,67.4,52.6,29.80,SW,230,6.0,10.0,59,0.00,,,0.21,575,Wunderground v.1.15,2013-09-21 22:59:00,
2013-09-21 16:04:00,67.6,53.7,29.80,SW,230,5.0,7.0,61,0.00,,,0.21,557,Wunderground v.1.15,2013-09-21 23:04:00,
2013-09-21 16:10:00,68.2,53.3,29.80,West,268,3.0,9.0,59,0.00,,,0.21,534,Wunderground v.1.15,2013-09-21 23:10:00,
2013-09-21 16:15:00,68.5,53.1,29.80,West,262,4.0,9.0,58,0.00,,,0.21,508,Wunderground v.1.15,2013-09-21 23:15:00,
2013-09-21 16:21:00,68.7,53.3,29.80,SW,221,4.0,6.0,58,0.00,,,0.21,494,Wunderground v.1.15,2013-09-21 23:21:00,
2013-09-21 16:26:00,68.6,52.8,29.80,West,278,5.0,12.0,57,0.00,,,0.21,492,Wunderground v.1.15,2013-09-21 23:26:00,
2013-09-21 16:31:00,68.5,53.6,29.80,NW,305,4.0,5.0,59,0.00,,,0.21,70,Wunderground v.1.15,2013-09-21 23:31:00,
2013-09-21 16:37:00,68.1,53.7,29.80,WSW,253,3.0,5.0,60,0.00,,,0.21,454,Wunderground v.1.15,2013-09-21 23:37:00,
2013-09-21 16:43:00,67.9,52.1,29.80,North,355,4.0,8.0,57,0.00,,,0.21,445,Wunderground v.1.15,2013-09-21 23:43:00,
2013-09-21 16:49:00,67.7,51.4,29.80,West,267,5.0,12.0,56,0.00,,,0.21,418,Wunderground v.1.15,2013-09-21 23:49:00,
2013-09-21 16:54:00,67.8,52.5,29.80,West,270,5.0,6.0,58,0.00,,,0.21,396,Wunderground v.1.15,2013-09-21 23:54:00,
2013-09-21 17:00:00,67.7,52.4,29.80,WSW,249,4.0,8.0,58,0.00,,,0.21,378,Wunderground v.1.15,2013-09-22 00:00:00,
2013-09-21 17:06:00,67.7,51.9,29.81,West,279,4.0,8.0,57,0.00,,,0.21,359,Wunderground v.1.15,2013-09-22 00:06:00,
2013-09-21 17:12:00,67.4,51.6,29.81,WSW,252,5.0,6.0,57,0.00,,,0.21,338,Wunderground v.1.15,2013-09-22 00:12:00,
2013-09-21 17:17:00,67.0,51.7,29.81,WSW,240,6.0,13.0,58,0.00,,,0.21,322,Wunderground v.1.15,2013-09-22 00:17:00,
2013-09-21 17:22:00,66.6,51.8,29.81,WNW,283,6.0,7.0,59,0.00,,,0.21,304,Wunderground v.1.15,2013-09-22 00:22:00,
2013-09-21 17:28:00,66.4,52.5,29.81,WSW,253,5.0,7.0,61,0.00,,,0.21,285,Wunderground v.1.15,2013-09-22 00:28:00,
2013-09-21 17:33:00,66.2,51.9,29.81,NW,317,4.0,10.0,60,0.00,,,0.21,271,Wunderground v.1.15,2013-09-22 00:33:00,
2013-09-21 17:39:00,65.9,52.5,29.81,NNW,329,5.0,10.0,62,0.00,,,0.21,253,Wunderground v.1.15,2013-09-22 00:39:00,
2013-09-21 17:44:00,65.7,51.9,29.81,NW,321,4.0,7.0,61,0.00,,,0.21,221,Wunderground v.1.15,2013-09-22 00:44:00,
2013-09-21 17:50:00,65.6,52.7,29.81,West,260,4.0,9.0,63,0.00,,,0.21,195,Wunderground v.1.15,2013-09-22 00:50:00,
2013-09-21 17:56:00,65.4,52.5,29.81,WSW,252,3.0,9.0,63,0.00,,,0.21,178,Wunderground v.1.15,2013-09-22 00:56:00,
2013-09-21 18:01:00,65.4,52.5,29.81,SW,223,3.0,5.0,63,0.00,,,0.21,156,Wunderground v.1.15,2013-09-22 01:01:00,
2013-09-21 18:07:00,65.5,52.6,29.81,SSW,198,2.0,5.0,63,0.00,,,0.21,118,Wunderground v.1.15,2013-09-22 01:07:00,
2013-09-21 18:13:00,65.4,52.5,29.81,WSW,255,1.0,5.0,63,0.00,,,0.21,118,Wunderground v.1.15,2013-09-22 01:13:00,
2013-09-21 18:19:00,65.2,52.7,29.81,WSW,250,2.0,7.0,64,0.00,,,0.21,90,Wunderground v.1.15,2013-09-22 01:19:00,
2013-09-21 18:25:00,65.0,52.5,29.82,SW,232,2.0,5.0,64,0.00,,,0.21,69,Wunderground v.1.15,2013-09-22 01:25:00,
2013-09-21 18:30:00,64.8,52.8,29.82,WNW,298,1.0,5.0,65,0.00,,,0.21,62,Wunderground v.1.15,2013-09-22 01:30:00,
2013-09-21 18:35:00,64.5,52.9,29.82,West,262,2.0,5.0,66,0.00,,,0.21,37,Wunderground v.1.15,2013-09-22 01:35:00,
2013-09-21 18:41:00,64.1,52.5,29.82,West,277,2.0,5.0,66,0.00,,,0.21,21,Wunderground v.1.15,2013-09-22 01:41:00,
2013-09-21 18:47:00,63.7,52.9,29.82,WSW,254,1.0,5.0,68,0.00,,,0.21,19,Wunderground v.1.15,2013-09-22 01:47:00,
2013-09-21 18:53:00,63.2,52.9,29.82,West,280,1.0,6.0,69,0.00,,,0.21,14,Wunderground v.1.15,2013-09-22 01:53:00,
2013-09-21 18:59:00,62.7,52.8,29.82,West,269,2.0,7.0,70,0.00,,,0.21,11,Wunderground v.1.15,2013-09-22 01:59:00,
2013-09-21 19:05:00,62.3,52.8,29.82,NW,304,2.0,5.0,71,0.00,,,0.21,5,Wunderground v.1.15,2013-09-22 02:05:00,
2013-09-21 19:10:00,62.1,52.6,29.82,West,269,1.0,1.0,71,0.00,,,0.21,0,Wunderground v.1.15,2013-09-22 02:10:00,
2013-09-21 19:16:00,61.8,52.7,29.83,West,279,0.0,5.0,72,0.00,,,0.21,0,Wunderground v.1.15,2013-09-22 02:16:00,
2013-09-21 19:21:00,61.6,52.9,29.83,West,279,0.0,5.0,73,0.00,,,0.21,0,Wunderground v.1.15,2013-09-22 02:21:00,
2013-09-21 19:26:00,61.5,52.8,29.83,West,279,0.0,5.0,73,0.00,,,0.21,0,Wunderground v.1.15,2013-09-22 02:26:00,
2013-09-21 19:32:00,61.2,52.5,29.83,West,279,0.0,5.0,73,0.00,,,0.21,0,Wunderground v.1.15,2013-09-22 02:32:00,
2013-09-21 19:37:00,61.1,52.7,29.83,West,279,0.0,5.0,74,0.00,,,0.21,0,Wunderground v.1.15,2013-09-22 02:37:00,
2013-09-21 19:42:00,60.9,52.9,29.84,West,279,0.0,5.0,75,0.00,,,0.21,0,Wunderground v.1.15,2013-09-22 02:42:00,
2013-09-21 19:47:00,60.7,53.1,29.84,West,279,0.0,5.0,76,0.00,,,0.21,0,Wunderground v.1.15,2013-09-22 02:47:00,
2013-09-21 19:53:00,60.4,52.8,29.84,West,279,0.0,5.0,76,0.00,,,0.21,0,Wunderground v.1.15,2013-09-22 02:53:00,
2013-09-21 19:59:00,60.2,53.0,29.85,West,279,0.0,5.0,77,0.00,,,0.21,0,Wunderground v.1.15,2013-09-22 02:59:00,
2013-09-21 20:05:00,59.9,53.0,29.85,West,279,0.0,5.0,78,0.00,,,0.21,0,Wunderground v.1.15,2013-09-22 03:05:00,
2013-09-21 20:11:00,59.6,52.7,29.85,West,279,0.0,5.0,78,0.00,,,0.21,0,Wunderground v.1.15,2013-09-22 03:11:00,
2013-09-21 20:17:00,59.3,52.8,29.85,West,279,0.0,5.0,79,0.00,,,0.21,0,Wunderground v.1.15,2013-09-22 03:17:00,
2013-09-21 20:23:00,59.0,52.8,29.86,West,279,0.0,5.0,80,0.00,,,0.21,0,Wunderground v.1.15,2013-09-22 03:23:00,
2013-09-21 20:29:00,58.7,52.5,29.86,West,279,0.0,5.0,80,0.00,,,0.21,0,Wunderground v.1.15,2013-09-22 03:29:00,
2013-09-21 20:34:00,58.4,52.6,29.86,West,279,0.0,5.0,81,0.00,,,0.21,0,Wunderground v.1.15,2013-09-22 03:34:00,
2013-09-21 20:39:00,58.2,52.4,29.86,West,279,0.0,5.0,81,0.00,,,0.21,0,Wunderground v.1.15,2013-09-22 03:39:00,
2013-09-21 20:44:00,57.9,52.4,29.86,West,279,0.0,5.0,82,0.00,,,0.21,0,Wunderground v.1.15,2013-09-22 03:44:00,
2013-09-21 20:50:00,57.6,52.1,29.87,West,279,0.0,5.0,82,0.00,,,0.21,0,Wunderground v.1.15,2013-09-22 03:50:00,
2013-09-21 20:55:00,57.4,52.3,29.88,West,279,0.0,5.0,83,0.00,,,0.21,0,Wunderground v.1.15,2013-09-22 03:55:00,
2013-09-21 21:00:00,57.3,52.2,29.88,West,279,0.0,5.0,83,0.00,,,0.21,0,Wunderground v.1.15,2013-09-22 04:00:00,
2013-09-21 21:01:00,57.2,52.1,29.88,West,279,0.0,5.0,83,0.00,,,0.21,0,Wunderground v.1.15,2013-09-22 04:01:00,
2013-09-21 21:04:00,57.1,52.0,29.88,West,279,0.0,5.0,83,0.00,,,0.21,0,Wunderground v.1.15,2013-09-22 04:04:00,
2013-09-21 21:06:00,57.1,52.0,29.88,West,279,0.0,5.0,83,0.00,,,0.21,0,Wunderground v.1.15,2013-09-22 04:06:00,
2013-09-21 21:09:00,56.9,51.8,29.88,West,279,0.0,5.0,83,0.00,,,0.21,0,Wunderground v.1.15,2013-09-22 04:09:00,
2013-09-21 21:16:00,56.6,51.5,29.88,West,279,0.0,5.0,83,0.00,,,0.21,0,Wunderground v.1.15,2013-09-22 04:16:00,
2013-09-21 21:22:00,56.4,51.6,29.88,West,279,0.0,5.0,84,0.00,,,0.21,0,Wunderground v.1.15,2013-09-22 04:22:00,
2013-09-21 21:26:00,56.3,51.5,29.88,West,279,0.0,5.0,84,0.00,,,0.21,0,Wunderground v.1.15,2013-09-22 04:26:00,
2013-09-21 21:31:00,56.1,51.7,29.88,West,279,0.0,5.0,85,0.00,,,0.21,0,Wunderground v.1.15,2013-09-22 04:31:00,
2013-09-21 21:37:00,55.9,51.5,29.88,West,279,0.0,5.0,85,0.00,,,0.21,0,Wunderground v.1.15,2013-09-22 04:37:00,
2013-09-21 21:42:00,55.7,51.3,29.87,West,279,0.0,5.0,85,0.00,,,0.21,0,Wunderground v.1.15,2013-09-22 04:42:00,
2013-09-21 21:48:00,55.5,51.4,29.88,West,279,0.0,5.0,86,0.00,,,0.21,0,Wunderground v.1.15,2013-09-22 04:48:00,
2013-09-21 21:53:00,55.2,51.1,29.88,West,279,0.0,5.0,86,0.00,,,0.21,0,Wunderground v.1.15,2013-09-22 04:53:00,
2013-09-21 21:59:00,55.0,50.9,29.88,West,279,0.0,5.0,86,0.00,,,0.21,0,Wunderground v.1.15,2013-09-22 04:59:00,
2013-09-21 22:04:00,54.9,51.1,29.88,West,279,0.0,5.0,87,0.00,,,0.21,0,Wunderground v.1.15,2013-09-22 05:04:00,
2013-09-21 22:10:00,54.6,50.8,29.88,West,279,0.0,5.0,87,0.00,,,0.21,0,Wunderground v.1.15,2013-09-22 05:10:00,
2013-09-21 22:15:00,54.5,50.7,29.88,West,279,0.0,5.0,87,0.00,,,0.21,0,Wunderground v.1.15,2013-09-22 05:15:00,
2013-09-21 22:21:00,54.3,50.5,29.89,West,279,0.0,5.0,87,0.00,,,0.21,0,Wunderground v.1.15,2013-09-22 05:21:00,
2013-09-21 22:26:00,54.0,50.2,29.88,West,279,0.0,5.0,87,0.00,,,0.21,0,Wunderground v.1.15,2013-09-22 05:26:00,
2013-09-21 22:32:00,53.8,50.3,29.88,West,279,0.0,5.0,88,0.00,,,0.21,0,Wunderground v.1.15,2013-09-22 05:32:00,
2013-09-21 22:38:00,53.7,50.2,29.89,West,279,0.0,5.0,88,0.00,,,0.21,0,Wunderground v.1.15,2013-09-22 05:38:00,
2013-09-21 22:43:00,53.5,50.0,29.89,West,279,0.0,5.0,88,0.00,,,0.21,0,Wunderground v.1.15,2013-09-22 05:43:00,
2013-09-21 22:49:00,53.3,49.8,29.89,West,279,0.0,5.0,88,0.00,,,0.21,0,Wunderground v.1.15,2013-09-22 05:49:00,
2013-09-21 22:54:00,53.2,50.0,29.90,West,279,0.0,5.0,89,0.00,,,0.21,0,Wunderground v.1.15,2013-09-22 05:54:00,
2013-09-21 22:59:00,53.1,49.9,29.89,West,279,0.0,5.0,89,0.00,,,0.21,0,Wunderground v.1.15,2013-09-22 05:59:00,
2013-09-21 23:05:00,52.9,49.7,29.90,West,279,0.0,5.0,89,0.00,,,0.21,0,Wunderground v.1.15,2013-09-22 06:05:00,
2013-09-21 23:11:00,52.8,49.6,29.90,West,279,0.0,5.0,89,0.00,,,0.21,0,Wunderground v.1.15,2013-09-22 06:11:00,
2013-09-21 23:16:00,52.7,49.8,29.90,West,279,0.0,5.0,90,0.00,,,0.21,0,Wunderground v.1.15,2013-09-22 06:16:00,
2013-09-21 23:21:00,52.6,49.4,29.90,West,279,0.0,5.0,89,0.00,,,0.21,0,Wunderground v.1.15,2013-09-22 06:21:00,
2013-09-21 23:26:00,52.4,49.6,29.90,West,279,0.0,5.0,90,0.00,,,0.21,0,Wunderground v.1.15,2013-09-22 06:26:00,
2013-09-21 23:31:00,52.2,49.4,29.90,West,279,0.0,5.0,90,0.00,,,0.21,0,Wunderground v.1.15,2013-09-22 06:31:00,
2013-09-21 23:36:00,52.1,49.3,29.91,West,279,0.0,5.0,90,0.00,,,0.21,0,Wunderground v.1.15,2013-09-22 06:36:00,
2013-09-21 23:42:00,51.9,49.1,29.91,West,279,0.0,5.0,90,0.00,,,0.21,0,Wunderground v.1.15,2013-09-22 06:42:00,
2013-09-21 23:47:00,51.8,49.0,29.91,West,279,0.0,5.0,90,0.00,,,0.21,0,Wunderground v.1.15,2013-09-22 06:47:00,
2013-09-21 23:52:00,51.7,48.9,29.91,West,279,0.0,5.0,90,0.00,,,0.21,0,Wunderground v.1.15,2013-09-22 06:52:00,
2013-09-21 23:57:00,51.5,48.7,29.90,West,279,0.0,5.0,90,0.00,,,0.21,0,Wunderground v.1.15,2013-09-22 06:57:00,